Portada
METAR-TAF:

METAR-TAF

Aeroports :

Maple Lake Municipal Airport

Maple Lake, Minnesota, Estats Units d'Amèrica

latitud: 45-14-10N, longitud: 093-59-08W, altitud: 313 m

Observació

L'informe es va fer fa 25 minuts, a les 16:15 UTC
Vent 10 kt del Sud amb ràfegues de 18 kt
Temperatura 14°C
Humitat 58%
Pressió 1024 hPa
Visibilitat: 16.1 km
Cel clar

METAR: KMGG 221615Z AUTO 18010G18KT 10SM CLR 14/06 A3025 RMK AO2 T01400056

Hora: 11:40 (16:40 UTC)


TAF: manca

Observacions i pronòstics meteorològics de més de 4000 aeroports (METAR i TAF).

Les estacions disponibles són els punts grocs i vermells al mapa.

Posi el ratolí al punt desitjat per veure el nom de l'estació.

Feu clic per veure les observacions i els pronòstics meteorològics.

Per canviar el mapa: feu clic els botons verds amb una creu de color negre per apropar; al botó verd amb un guió per allunyar la imatge; o en les fletxes verdes per a mapes adjacents.


METAR-TAF: